2000 PQ9  

Epoch 2000 Aug. 24.0 TT = JDT 2451780.5                 Nakano

M  12.98636              (2000.0)            P               Q

n   0.37552543     Peri.    6.61272     +0.55603367     +0.80500337

a   1.9027270      Node   297.36338     -0.77284703     +0.40916906

e   0.4309406      Incl.   13.46996     -0.30583332     +0.42959312

P   2.62           H   18.0           G   0.15           U   *

Residuals in seconds of arc 

000809 704  0.1-  0.1+    000810 046  0.2-  0.1-    000817 157  0.1-  0.1-  

000809 704  0.2-  0.3+    000810 157  1.3-  0.8-    000817 157  0.1+  0.5+  

000809 704  0.1-  0.4+    000811 157  0.3-  0.9-    000817 157  0.3-  0.4+  

000809 704  0.1-  0.5+    000811 157  0.1-  1.2-    000819 108  0.7+  0.6+  

000809 704  0.3-  0.8+    000811 118  0.2+  0.0     000819 108  0.6-  0.5-  

000810 118  0.1+  0.1+    000811 118  0.2+  0.0     000819 108  1.5-  0.6-  

000810 118  0.1+  0.2+    000811 118  0.1+  0.0     000820 118  0.4+  0.1+  

000810 118  0.1+  0.1+    000811 734  0.1-  0.3-    000820 118  0.4+  0.1+  

000810 046  0.2+  0.0     000811 734  0.1-  0.6-    000820 118  0.4+  0.2+  

000810 046  0.1-  0.1+    000811 734  0.0   0.4-    000822 118  0.4-  0.0   

000810 046  0.1+  0.0     000811 704  0.3-  0.1-    000822 118  0.1+  0.2+  

000810 046  0.1+  0.1+    000811 704  0.0   0.0     000822 704  0.3+  0.0   

000810 713  0.9+  1.0+    000811 704  0.1-  0.0     000822 704  0.0   0.0   

000810 713  0.4+  0.3+    000811 704  0.0   0.3+    000822 704  0.2+  0.1-  

000810 713  1.2+  0.1-    000811 557  0.2-  0.0     000822 704  0.3+  0.1-  

000810 713  0.3-  0.3+    000811 557  0.1-  0.0     000822 704  0.6+  0.5-  

000810 642  0.8+  0.6+    000811 557  0.2-  0.0     000823 402  0.5-  0.2+  

000810 642 (0.3-  2.7-)   000811 557  0.1-  0.4+    000823 402  0.3-  0.0   

000810 642  0.8-  0.7-    000812 106  0.1-  0.4+    000823 402  0.0   0.2-  

000810 557  0.0   0.3-    000812 106  0.7-  1.0+    000824 726 (2.6+  1.5-) 

000810 557  0.0   0.2-    000812 106  0.0   0.1+    000824 726  0.4-  2.0-  

000810 557  0.1-  0.2-    000813 670  0.0   0.1-    000824 726  0.6-  0.6-  

000810 151  0.4+  0.3-    000813 670  0.4-  0.3+    000825 670  0.2-  0.2-  

000810 151  0.1+  0.3-    000813 360  0.1+  0.1-    000825 670  0.3-  0.2+  

000810 151  0.1+  0.2-    000813 360  0.1+  0.1-    000825 658  0.1-  0.4+  

000810 151  0.2-  0.4-    000813 360  0.2+  0.2-    000825 658  0.0   0.2+  

000810 151  0.0   0.6-    000815 670  0.2+  0.6+    000825 658  0.2+  0.3+  

000810 151  0.1-  0.6-    000815 670  0.1-  0.3+    000828 118  0.0   0.1+  

000810 046  0.1-  0.0     000817 642 (2.6+  0.5-)   000828 118  0.0   0.1+  

000810 157 (2.4-  1.1-)   000817 642  0.4+  0.9+    000828 360  0.1+  0.2+  

000810 046  0.1-  0.1-    000817 642  1.6+  0.2+    000828 360  0.2+  0.1+  

000810 046  0.1+  0.1-    000817 642 (3.9-  1.6-)   000828 360  0.1+  0.1+  

 

 

NAKANO

         **** Don't distribute anyone except personal use only ****

                (C) Copyright 2000 OAA/ComputingSection

write mail from CFAD0::NAKANO on 2000-08-29 19:55:55(JST).

 







 2000 PQ9  

Epoch 2000 Aug. 4.0 TT = JDT 2451760.5                  Nakano

M   5.49013              (2000.0)            P               Q

n   0.37665077     Peri.    6.61678     +0.55596711     +0.80512673

a   1.8989352      Node   297.35425     -0.77287873     +0.40928372

e   0.4298756      Incl.   13.44884     -0.30587422     +0.42925258

P   2.62           H   17.9           G   0.15           U   *

 

NAKANO

         **** Don't distribute anyone except personal use only ****

                (C) Copyright 2000 OAA/ComputingSection

write mail from CFAD0::NAKANO on 2000-08-25 05:55:27(JST).

 









–ß‚è‚Ü‚·B